Meadville, PA

2:37 AM EDT on May 23, 2017 (GMT -0400)
Port Meadville

Weather History for KGKJ - April, 2014

Change the Weather History Date:

Thursday, April 17, 2014

  Actual Average Record
Temperature  
Mean Temperature 46 °F -  
Max Temperature 61 °F 60 °F 82 °F (1976)
Min Temperature 33 °F 35 °F 16 °F (1949)
Degree Days  
Heating Degree Days 18    
Moisture  
Dew Point 21 °F    
Average Humidity 37    
Maximum Humidity 50    
Minimum Humidity 25    
Precipitation  
Precipitation 0.00 in - - ()
Sea Level Pressure  
Sea Level Pressure 30.40 in    
Wind  
Wind Speed 6 mph (SSE)    
Max Wind Speed 12 mph    
Max Gust Speed 21 mph    
Visibility 10 miles    
Events      
Averages and records for this station are not official NWS values.
T = Trace of Precipitation, MM = Missing Value Source: NWS Daily Summary

Daily Weather History Graph

Daily Weather History Graph

Search for Another Location

Airport or City:

Trip Planner

Search our weather history database for the weather conditions in past years. The results will help you decide how hot, cold, wet, or windy it might be!

Date:

Astronomy

Apr. 17, 2014 Rise Set
Actual Time 6:37 AM EDT 8:03 PM EDT
Civil Twilight 6:08 AM EDT 8:32 PM EDT
Nautical Twilight 5:34 AM EDT 9:07 PM EDT
Astronomical Twilight 4:57 AM EDT 9:44 PM EDT
Moon 10:49 PM EDT (4/17) 8:06 AM EDT (4/17)
Length of Visible Light 14h 23m
Length of Day
13h 25m
Waning Gibbous, 94% of the Moon is Illuminated
Apr 17
Waning Gibbous
Apr 22
Last Quarter
Apr 29
New
May 6
First Quarter
May 14
Full

Hourly Weather History & Observations

Time (EDT) Temp. Windchill Dew Point Humidity Pressure Visibility Wind Dir Wind Speed Gust Speed Precip Events Conditions
12:53 AM 34.0 °F 29.8 °F 15.1 °F 46% 30.45 in 10.0 mi East 4.6 mph - N/A   Clear
1:53 AM 35.1 °F 31.0 °F 14.0 °F 42% 30.43 in 10.0 mi Variable 4.6 mph - N/A   Clear
2:53 AM 35.1 °F 28.6 °F 14.0 °F 42% 30.42 in 10.0 mi SSE 8.1 mph - N/A   Clear
3:53 AM 35.1 °F 30.1 °F 15.1 °F 44% 30.42 in 10.0 mi Variable 5.8 mph - N/A   Clear
4:53 AM 35.1 °F 29.3 °F 15.1 °F 44% 30.43 in 10.0 mi Variable 6.9 mph - N/A   Clear
5:53 AM 34.0 °F 28.0 °F 15.1 °F 46% 30.43 in 10.0 mi Variable 6.9 mph - N/A   Clear
6:53 AM 33.1 °F 26.1 °F 16.0 °F 50% 30.45 in 10.0 mi SE 8.1 mph - N/A   Clear
7:53 AM 35.1 °F - 16.0 °F 46% 30.47 in 10.0 mi North - - N/A   Clear
8:53 AM 37.9 °F 33.5 °F 17.1 °F 43% 30.47 in 10.0 mi Variable 5.8 mph - N/A   Clear
9:53 AM 41.0 °F 36.4 °F 19.0 °F 41% 30.46 in 10.0 mi Variable 6.9 mph - N/A   Clear
10:53 AM 46.0 °F - 21.0 °F 37% 30.46 in 10.0 mi North - - N/A   Clear
1:53 PM 55.9 °F - 25.0 °F 30% 30.40 in 10.0 mi SE 8.1 mph - N/A   Clear
2:53 PM 57.9 °F - 25.0 °F 28% 30.39 in 10.0 mi Variable 6.9 mph 17.3 mph N/A   Clear
3:53 PM 60.1 °F - 26.1 °F 27% 30.37 in 10.0 mi SSE 8.1 mph - N/A   Clear
4:53 PM 60.1 °F - 25.0 °F 26% 30.35 in 10.0 mi SW 11.5 mph 20.7 mph N/A   Clear
5:53 PM 60.1 °F - 24.1 °F 25% 30.35 in 10.0 mi South 8.1 mph 18.4 mph N/A   Clear
6:53 PM 60.1 °F - 24.1 °F 25% 30.34 in 10.0 mi SSE 5.8 mph - N/A   Clear
7:53 PM 57.9 °F - 25.0 °F 28% 30.34 in 10.0 mi Variable 4.6 mph - N/A   Clear
8:53 PM 54.0 °F - 25.0 °F 33% 30.35 in 10.0 mi Variable 3.5 mph - N/A   Clear
9:53 PM 52.0 °F - 26.1 °F 37% 30.35 in 10.0 mi SE 8.1 mph - N/A   Clear
10:53 PM 50.0 °F - 27.0 °F 41% 30.36 in 10.0 mi Variable 5.8 mph - N/A   Clear
11:53 PM 48.0 °F - 26.1 °F 42% 30.39 in 10.0 mi Variable 6.9 mph - N/A   Clear